#timestamp,LO_Frequency,Hit,StdDev 
1550653215.3,286047003.4,N
1550653235.2,286047003.4,N
1550653255.9,286047003.0,N
1550653275.7,286047003.0,N
1550653295.6,286047005.5,Y
1550653315.4,286047000.3,P
1550653335.2,286047000.5,N
1550653355.1,286047001.0,N
1550653356.0,286047001.0,N
1550653375.8,286047001.1,N
1550653395.7,286046999.9,N
1550653415.5,286047000.0,N
1550653435.3,286047001.0,N
1550653455.2,286046998.2,N
1550653475.0,286047002.5,N
1550653475.9,286047002.5,N
1550653495.8,286047002.1,N
1550653515.6,286047004.1,Y
1550653535.4,286047003.9,P
1550653555.3,286047001.3,N
1550653575.1,286047003.1,N
1550653595.8,286047003.6,N
1550653615.7,286047003.8,Y
1550653635.5,286047002.1,P
1550653655.4,286047002.0,P
1550653675.2,286047002.0,P
1550653695.0,286047001.3,Y
1550653695.9,286047001.3,P
1550653715.8,286047002.4,P
1550653735.6,286047001.2,N
1550653755.5,286046998.6,N
1550653775.3,286047000.3,N
1550653795.1,286047000.8,N
1550653815.9,286047000.0,N
1550653835.7,286046998.1,N
1550653855.5,286046998.6,N
1550653875.4,286046998.4,N
1550653895.2,286046999.9,N
1550653915.1,286047002.6,N
1550653916.0,286047002.6,N
1550653935.8,286047004.1,N
1550653955.6,286047004.1,N
1550653975.5,286047004.1,N
1550653995.3,286047002.7,N
1550654015.1,286047001.7,N
1550654035.9,286047003.5,N
1550654055.7,286047004.1,N
1550654075.6,286047003.9,N
1550654095.4,286047000.8,N
1550654115.2,286046998.3,N
1550654135.1,286047000.6,N
1550654136.0,286047000.6,N
1550654155.8,286047000.2,N
1550654175.7,286047000.3,N
1550654195.5,286046999.7,N
1550654215.3,286047002.4,N
1550654235.2,286047002.0,N
1550654255.0,286047000.1,N
1550654255.9,286047000.1,N
1550654275.8,286047000.3,N
1550654295.6,286047000.0,N
1550654315.4,286047000.4,N
1550654335.3,286047000.0,N
1550654355.1,286047000.3,N
1550654375.8,286047000.3,N
1550654395.7,286047000.3,N
1550654445.5,286047005.9,E
1550654455.5,286047001.7,N
1550654475.3,286046998.7,P
1550654495.1,286046998.8,N
1550654515.9,286047001.1,N
1550654535.7,286047001.2,N
1550654555.6,286047001.1,N
1550654575.4,286046996.6,N
1550654595.2,286046999.4,N
1550654615.1,286046998.7,N
1550654616.0,286046998.7,N
1550654635.8,286047000.1,N
1550654655.6,286046998.2,N
1550654675.5,286047000.2,N
1550654695.3,286047000.0,N
1550654715.2,286047001.0,N
1550654735.9,286046998.5,N
1550654755.7,286047002.4,N
1550654775.6,286047002.0,N
1550654795.4,286047002.5,N
1550654815.3,286047002.3,N
1550654835.1,286047002.8,N
1550654836.0,286047002.8,N
1550654855.8,286047000.9,N
1550654875.7,286047000.3,N
1550654895.5,286046999.3,N
1550654915.4,286046997.3,N
1550654935.2,286046994.9,Y
1550654955.0,286046997.5,P
1550654955.9,286046997.5,N
1550654975.8,286046999.3,N
1550654995.6,286046999.0,N
1550655015.5,286046995.4,Y
1550655035.3,286046997.8,P
1550655055.1,286046998.0,P
1550655075.9,286046995.3,P
1550655095.7,286046997.2,N
1550655115.6,286046996.6,N
1550655135.4,286046996.9,N
1550655155.2,286046998.0,N
1550655175.1,286046995.5,Y
1550655176.0,286046995.5,P
1550655195.8,286047001.1,N
1550655215.7,286046998.9,N
1550655235.5,286047000.1,N
1550655255.3,286047003.3,N
1550655275.2,286047004.0,N
1550655295.0,286047000.1,N
1550655295.9,286047000.1,N
1550655315.7,286047001.0,N
1550655335.6,286047000.6,N
1550655355.5,286047002.6,N
1550655375.3,286047001.5,N
1550655395.1,286047003.7,N
1550655415.9,286047002.3,N
1550655435.7,286047002.4,N
1550655455.6,286046999.8,N
1550655475.4,286046999.8,N
1550655495.2,286047001.0,N
1550655515.1,286046996.9,N
1550655535.9,286046997.3,N
1550655555.7,286046996.5,N
1550655575.5,286047002.3,N
1550655595.4,286047004.1,N
1550655615.2,286047002.0,N
1550655635.1,286047000.4,N
1550655636.0,286047000.4,N
1550655655.8,286047000.7,N
1550655675.6,286047000.6,N
1550655695.5,286047002.2,N
1550655715.3,286047001.7,N
1550655735.2,286047002.1,N
1550655755.9,286047003.7,N
1550655775.7,286047002.0,N
1550655795.6,286047002.2,N
1550655815.4,286046999.9,N
1550655835.3,286047000.1,N
1550655855.1,286047002.0,N
1550655856.0,286047002.0,N
1550655875.8,286047004.4,N
1550655895.7,286047005.3,N
1550655915.5,286047003.1,N
1550655935.3,286047003.1,N
1550655955.2,286047003.2,N
1550655975.0,286047003.5,N
1550655975.9,286047003.5,N
1550655995.8,286047002.1,N
1550656015.6,286047002.4,N
1550656035.4,286047002.2,N
1550656055.3,286047001.6,N
1550656075.1,286047004.4,N
1550656095.9,286047001.6,N
1550656115.7,286047001.6,N
1550656135.5,286047001.3,N
1550656155.4,286047006.0,Y
1550656175.2,286046999.8,P
1550656195.1,286047002.4,N
1550656196.0,286047002.4,N
1550656215.8,286046998.6,N
1550656235.6,286046999.4,N
1550656255.5,286046999.5,N
1550656275.3,286046997.1,N
1550656295.2,286046996.7,N
1550656315.9,286046998.8,N
1550656335.7,286046998.8,N
1550656355.6,286046998.7,N
1550656375.4,286047001.1,N
1550656395.3,286046998.8,N
1550656415.1,286046999.6,N
1550656416.0,286046999.6,N
1550656435.8,286046998.7,N
1550656455.7,286047001.1,N
1550656475.5,286047001.2,N
1550656495.3,286047001.2,N
1550656515.2,286047000.9,N
1550656535.0,286047000.3,N
1550656535.9,286047000.3,N
1550656555.8,286047000.4,N
1550656575.6,286046998.8,N
1550656595.4,286046998.1,N
1550656615.3,286047001.0,N
1550656635.1,286046999.8,N
1550656655.8,286047002.6,N
1550656675.7,286047001.8,N
1550656695.5,286047001.5,N
1550656715.4,286047001.9,N
1550656735.2,286047004.4,N
1550656755.0,286047002.5,N
1550656755.9,286047002.5,N
1550656775.8,286047003.7,N
1550656795.6,286047003.8,N
